Home   Weather   Clearwater   Past weeks

Flag for USA Past Weather in Clearwater, Florida, USA — Yesterday and Last 2 Weeks

Now
80 °F

Sunny.


Feels Like: 81 °F
Forecast: 67 / 78 °F
Wind: 22 mph from South

Location: St. Petersburg / Clearwater International Airport

Current Time: Jan 21, 2017 at 1:02:13 pm

Latest Report: Jan 21, 2017 at 11:53 am


Visibility: 10 mi

Pressure: 29.92 "Hg

Humidity: 54%

Dew Point: 62 °F

Location of ClearwaterLocation

Past Weather in Clearwater — Graph

°F

Clearwater Temperature Yesterday

Maximum temperature yesterday: 79 °F (at 2:53 pm)
Minimum temperature yesterday: 63 °F (at 5:53 am)
Average temperature yesterday: 70 °F

High & Low Weather Summary for the Past Weeks

 TemperatureHumidityPressure
High81 °F (Jan 17, 1:53 pm)100% (Jan 12, 7:53 am)30.61 "Hg (Jan 12, 7:53 am)
Low36 °F (Jan 8, 5:53 am)35% (Jan 8, 1:53 pm)29.90 "Hg (Jan 7, 5:53 am)
Average64 °F76%30.24 "Hg
* Reported Jan 6 11:53 am — Jan 21 11:53 am, Clearwater, Weather by CustomWeather, © 2017

Note: Actual official high and low records may vary slightly from our data, if they occured in-between our weather recording intervals... More about our weather records

Advertising

Clearwater Weather History for the Previous 24 Hours

Scroll right to see more
 ConditionsComfort  
Time TempWeatherWind HumidityBarometerVisibility
11:53 am
Sat, Jan 21
80 °FSunny.22 mph54%29.92 "Hg10 mi
10:53 am78 °FPartly sunny.18 mph62%29.95 "Hg10 mi
9:53 am75 °FPassing clouds.18 mph62%29.95 "Hg10 mi
8:53 am71 °FSunny.10 mph78%29.94 "Hg10 mi
7:53 am66 °FSunny.7 mph90%29.93 "Hg8 mi
6:53 am67 °FClear.9 mph90%29.92 "Hg8 mi
5:53 am67 °FClear.7 mph93%29.92 "Hg8 mi
4:53 am67 °FClear.8 mph93%29.92 "Hg7 mi
3:53 am65 °FFog.6 mph97%29.94 "Hg5 mi
2:53 am66 °FFog.6 mph96%29.96 "Hg6 mi
1:53 am68 °FClear.7 mph93%29.96 "Hg7 mi
12:53 am67 °FClear.6 mph93%29.97 "Hg7 mi
11:53 pm
Fri, Jan 20
67 °FClear.7 mph93%29.98 "Hg8 mi
10:53 pm67 °FClear.6 mph93%29.98 "Hg8 mi
9:53 pm68 °FClear.7 mph90%29.98 "Hg10 mi
8:53 pm68 °FClear.7 mph90%29.97 "Hg10 mi
7:53 pm69 °FClear.7 mph87%29.96 "Hg10 mi
6:53 pm70 °FClear.6 mph84%29.95 "Hg10 mi
5:53 pm73 °FSunny.8 mph76%29.94 "Hg10 mi
4:53 pm76 °FSunny.10 mph67%29.93 "Hg10 mi
3:53 pm78 °FSunny.15 mph58%29.93 "Hg10 mi
2:53 pm79 °FSunny.15 mph54%29.93 "Hg10 mi
1:53 pm78 °FPartly sunny.14 mph56%29.94 "Hg10 mi
Weather by CustomWeather, © 2017

See weather overviewHow to use our weather pages